Regional Weather Roundup
Issued by NWS

Home | Current Version | Previous Version | Text Only | Print | Product List | Glossary On
Versions: 1 2 3 4 5 6 7 8 9 10 11 12 13 14 15 16 17 18 19 20 21 22 23 24 25 26 27 28 29 30 31 32 33 34 35 36 37 38 39 40 41 42 43 44 45 46 47 48 49 50
000
ASCA42 TJSJ 021310
RWRPR
PUERTO RICO/U.S. VIRGIN ISLANDS HOURLY WEATHER ROUNDUP
NATIONAL WEATHER SERVICE SAN JUAN PR
900 AM AST THU JUL 02 2015

PRZ001-004-021400-
PUERTO RICO

CITY           SKY/WX    TMP DP  RH WIND       PRES   REMARKS
SAN JUAN LMM   MOSUNNY   84  75  74 E16       30.10R HX  92
AGUADILLA      MOSUNNY   84  68  58 E12       30.11S
CEIBA          CLOUDY    84  73  70 E13       30.12S HX  91
$$

PRZ006-007-021400-
U.S. VIRGIN ISLANDS

CITY           SKY/WX    TMP DP  RH WIND       PRES   REMARKS
CHARLOTTE AMA  CLOUDY    88  72  58 E20G25    30.10R HX  94
CHRISTIANSTED  MOSUNNY   84  72  65 E17G29    30.09S
$$

HOURLY WEATHER ROUNDUP FOR THE NEWS MEDIA

CITY           SKY/WX    TMP DP  RH WIND       PRES   REMARKS
ORLANDO        SUNNY     81  73  76 S7        30.13R
NEW YORK       PTSUNNY   77  54  44 CALM      29.92R
NEWARK         PTSUNNY   73  57  57 N7        29.92R
CHICAGO        CLOUDY    57  53  86 NE8       30.01R
HARTFORD       SUNNY     74  59  59 W8        29.89R
BOSTON         PTSUNNY   71  56  58 W12       29.88R
DALLAS         PTSUNNY   77  68  73 SW10      29.98R
PHILADELPHIA   CLOUDY    73  61  65 NE3       29.91S
LOS ANGELES    CLOUDY    66  62  87 W8        29.97R
WASHINGTON DC  CLOUDY    69  61  75 NE6       29.93R


USA.gov is the U.S. government's official web portal to all federal, state and local government web resources and services.